Weather History for Torrington, WY

Change the Weather History Date:

Monday, November 4, 2013

  Actual Average Record
Temperature  
Mean Temperature 36 °F 41 °F  
Max Temperature 45 °F 55 °F 77 °F (1999)
Min Temperature 26 °F 27 °F 17 °F (2000)
Degree Days  
Heating Degree Days 29 24  
Month to date heating degree days 93 93  
Since 1 July heating degree days 795 803  
Cooling Degree Days 0 0  
Month to date cooling degree days 0 0  
Year to date cooling degree days 893 678  
Moisture  
Dew Point 25 °F    
Average Humidity 64    
Maximum Humidity 96    
Minimum Humidity 31    
Precipitation  
Precipitation T in 0.02 in 0.01 in (2003)
Month to date precipitation 0.07 0.09  
Year to date precipitation 13.19 13.49  
Sea Level Pressure  
Sea Level Pressure 30.01 in    
Wind  
Wind Speed 7 mph (WNW)    
Max Wind Speed 18 mph    
Max Gust Speed 25 mph    
Visibility 9 miles    
Events Snow    
T = Trace of Precipitation, MM = Missing Value Source: NWS Daily Summary

Daily Weather History Graph

Daily Weather History Graph

Search for Another Location

Airport:

Trip Planner

Search our weather history database for the weather conditions in past years. The results will help you decide how hot, cold, wet, or windy it might be!

Date:

Astronomy

Nov. 04, 2013 Rise Set
Actual Time 6:33 AM MST 4:46 PM MST
Civil Twilight 6:04 AM MST 5:15 PM MST
Nautical Twilight 5:30 AM MST 5:48 PM MST
Astronomical Twilight 4:58 AM MST 6:21 PM MST
Moon 7:47 AM MST (11/4) 5:52 PM MST (11/4)
Length of Visible Light 11h 11m
Length of Day
10h 12m
New Moon, 2% of the Moon is Illuminated
Nov 4
New Moon
Nov 9
First Quarter
Nov 17
Full
Nov 25
Last Quarter
Dec 2
New

Hourly Weather History & Observations

Time (MST) Temp. Windchill Dew Point Humidity Pressure Visibility Wind Dir Wind Speed Gust Speed Precip Events Conditions
12:53 AM 33.1 °F 28.7 °F 32.0 °F 96% 29.86 in 10.0 mi North 4.6 mph - N/A   Clear
1:53 AM 32.0 °F 22.1 °F 28.0 °F 85% 29.87 in 10.0 mi NW 13.8 mph - N/A   Partly Cloudy
2:53 AM 30.0 °F 23.2 °F 27.0 °F 88% 29.93 in 10.0 mi NW 6.9 mph - N/A   Clear
3:53 AM 28.0 °F 21.7 °F 26.1 °F 92% 29.96 in 10.0 mi West 5.8 mph - N/A   Clear
4:53 AM 27.0 °F 20.5 °F 25.0 °F 92% 29.97 in 10.0 mi WSW 5.8 mph - N/A   Clear
5:53 AM 27.0 °F 20.5 °F 24.1 °F 89% 30.00 in 10.0 mi West 5.8 mph - N/A   Clear
6:53 AM 26.1 °F 19.4 °F 24.1 °F 92% 30.03 in 10.0 mi West 5.8 mph - N/A   Clear
7:53 AM 30.0 °F 22.4 °F 25.0 °F 82% 30.03 in 10.0 mi WNW 8.1 mph - N/A   Clear
8:53 AM 34.0 °F 29.8 °F 21.9 °F 61% 30.04 in 10.0 mi NW 4.6 mph - N/A   Clear
9:53 AM 37.0 °F 34.5 °F 26.1 °F 65% 30.06 in 10.0 mi WNW 3.5 mph - N/A   Clear
10:53 AM 37.9 °F 35.5 °F 24.1 °F 57% 30.06 in 10.0 mi South 3.5 mph - N/A   Clear
11:53 AM 42.1 °F 39.2 °F 21.9 °F 45% 30.02 in 10.0 mi NNW 4.6 mph - N/A   Clear
12:53 PM 43.0 °F 41.3 °F 19.9 °F 40% 29.99 in 10.0 mi NNE 3.5 mph - N/A   Clear
1:53 PM 45.0 °F 38.9 °F 15.1 °F 30% 29.97 in 10.0 mi WSW 12.7 mph 16.1 mph N/A   Partly Cloudy
2:53 PM 42.1 °F 38.4 °F 18.0 °F 38% 29.99 in 10.0 mi Variable 5.8 mph - N/A   Overcast
3:53 PM 41.0 °F 37.1 °F 21.0 °F 45% 30.01 in 10.0 mi SE 5.8 mph - N/A   Overcast
4:53 PM 39.0 °F 34.8 °F 23.0 °F 53% 30.03 in 10.0 mi ESE 5.8 mph - N/A   Overcast
5:53 PM 37.9 °F 33.5 °F 26.1 °F 62% 30.05 in 10.0 mi SE 5.8 mph - N/A   Overcast
6:53 PM 37.0 °F 33.3 °F 26.1 °F 65% 30.07 in 10.0 mi ESE 4.6 mph - N/A   Overcast
7:53 PM 36.0 °F 29.6 °F 25.0 °F 64% 30.06 in 10.0 mi SE 8.1 mph - N/A   Overcast
8:53 PM 37.9 °F 30.0 °F 24.1 °F 57% 30.06 in 10.0 mi SSW 12.7 mph - N/A   Overcast
9:33 PM 35.6 °F 28.6 °F 28.4 °F 75% 30.03 in 7.0 mi SSW 9.2 mph - 0.00 in Snow Light Snow
9:53 PM 33.1 °F 25.5 °F 30.0 °F 89% 30.07 in 3.0 mi WNW 9.2 mph - 0.00 in Snow Light Snow
10:53 PM 32.0 °F 23.6 °F 30.9 °F 96% 30.05 in 10.0 mi NNW 10.4 mph - 0.00 in   Overcast
11:36 PM 33.8 °F 27.7 °F 30.2 °F 87% 30.00 in 3.0 mi NNW 6.9 mph - 0.00 in Snow Light Snow
11:53 PM 32.0 °F 24.8 °F 30.9 °F 96% 30.04 in 2.5 mi NNW 8.1 mph - 0.00 in Snow Light Snow